| time (UTC) | temp F | wind direction | speed knots | gust knots | rain 1hr in | rain 24hr in | rain mn in | humidity % | barometer mb |
| 20260503023024 | 71 | 165 | 3.5 | 11.3 | 0.01 | 0.01 | 0.01 | 64 | 1011.4 |
| 20260503021523 | 73 | 190 | 3.5 | 9.6 | 0.00 | 0.00 | 0.00 | 61 | 1011.2 |
| 20260503020005 | 74 | 296 | 0.0 | 0.0 | 0.00 | 0.00 | 0.00 | 60 | 1010.6 |
| 20260503014505 | 74 | 299 | 0.0 | 0.0 | 0.00 | 0.00 | 0.00 | 61 | 1010.4 |
| 20260503013052 | 74 | 299 | 0.0 | 0.0 | 0.00 | 0.00 | 0.00 | 60 | 1010.3 |
| 20260503011552 | 73 | 299 | 0.0 | 0.0 | 0.00 | 0.00 | 0.00 | 61 | 1010.4 |
| 20260503010051 | 73 | 299 | 0.0 | 0.9 | 0.00 | 0.00 | 0.00 | 62 | 1010.3 |
| 20260503004550 | 74 | 299 | 0.0 | 0.0 | 0.00 | 0.00 | 0.00 | 61 | 1010.4 |
| 20260503003055 | 73 | 299 | 0.0 | 0.0 | 0.00 | 0.00 | 0.00 | 64 | 1010.4 |
| 20260503001606 | 73 | 299 | 0.0 | 3.5 | 0.00 | 0.00 | 0.00 | 61 | 1010.5 |
| 20260503000050 | 74 | 349 | 0.0 | 3.5 | 0.00 | 0.00 | 0.00 | 60 | 1010.5 |
| 20260502234549 | 73 | 351 | 0.9 | 4.3 | 0.00 | 0.00 | 0.00 | 61 | 1010.6 |
| 20260502233028 | 73 | 258 | 0.9 | 4.3 | 0.00 | 0.00 | 0.00 | 60 | 1010.8 |
| 20260502231525 | 72 | 307 | 0.0 | 2.6 | 0.00 | 0.00 | 0.00 | 61 | 1010.9 |
| 20260502230006 | 72 | 309 | 1.7 | 6.1 | 0.00 | 0.00 | 0.00 | 62 | 1011.1 |
| 20260502224502 | 73 | 295 | 0.0 | 5.2 | 0.00 | 0.00 | 0.00 | 60 | 1011.4 |
| 20260502223042 | 74 | 43 | 0.0 | 2.6 | 0.00 | 0.00 | 0.00 | 59 | 1011.7 |
| 20260502221544 | 73 | 41 | 0.0 | 4.3 | 0.00 | 0.00 | 0.00 | 59 | 1011.9 |
| 20260502220024 | 71 | 31 | 1.7 | 5.2 | 0.00 | 0.00 | 0.00 | 62 | 1012.3 |
| 20260502214519 | 70 | 276 | 0.0 | 3.5 | 0.00 | 0.00 | 0.00 | 63 | 1012.4 |
| 20260502213120 | 70 | 344 | 0.0 | 3.5 | 0.00 | 0.00 | 0.00 | 64 | 1012.6 |
| 20260502211600 | 68 | 169 | 0.0 | 0.0 | 0.00 | 0.00 | 0.00 | 67 | 1012.9 |
| 20260502210126 | 65 | 219 | 0.0 | 3.5 | 0.00 | 0.00 | 0.00 | 72 | 1013.1 |
| 20260502204544 | 63 | 246 | 0.0 | 4.3 | 0.00 | 0.00 | 0.00 | 73 | 1013.3 |
| 20260502203040 | 63 | 242 | 0.0 | 6.1 | 0.00 | 0.00 | 0.00 | 74 | 1013.5 |
| 20260502201526 | 62 | 242 | 0.9 | 4.3 | 0.00 | 0.00 | 0.00 | 77 | 1013.7 |
| 20260502200023 | 61 | 255 | 0.0 | 4.3 | 0.00 | 0.00 | 0.00 | 75 | 1013.7 |
| 20260502194504 | 60 | 308 | 0.9 | 7.8 | 0.00 | 0.00 | 0.00 | 78 | 1014.0 |
| 20260502193006 | 58 | 279 | 0.0 | 4.3 | 0.00 | 0.00 | 0.00 | 80 | 1014.7 |
| 20260502191548 | 56 | 273 | 0.9 | 7.0 | 0.00 | 0.00 | 0.00 | 82 | 1014.8 |
| 20260502190047 | 56 | 300 | 0.0 | 7.0 | 0.00 | 0.00 | 0.00 | 82 | 1014.9 |
| 20260502184550 | 56 | 298 | 0.9 | 4.3 | 0.00 | 0.00 | 0.00 | 80 | 1014.8 |
| 20260502183028 | 57 | 288 | 0.0 | 4.3 | 0.00 | 0.00 | 0.00 | 79 | 1014.8 |
| 20260502181509 | 58 | 350 | 0.0 | 6.1 | 0.00 | 0.00 | 0.00 | 77 | 1014.9 |
| 20260502163015 | 55 | 61 | 2.6 | 6.1 | 0.00 | 0.00 | 0.00 | 83 | 1015.5 |
| 20260502161557 | 54 | 344 | 2.6 | 7.0 | 0.00 | 0.00 | 0.00 | 83 | 1015.5 |
| 20260502151520 | 52 | 63 | 1.7 | 3.5 | 0.00 | 0.00 | 0.00 | 88 | 1015.4 |
| 20260502123100 | 49 | 63 | 0.0 | 0.0 | 0.00 | 0.00 | 0.00 | 90 | 1015.2 |
| 20260502121549 | 49 | 64 | 0.0 | 0.0 | 0.00 | 0.00 | 0.00 | 90 | 1015.1 |
| 20260502114549 | 50 | 64 | 0.0 | 0.0 | 0.00 | 0.00 | 0.00 | 89 | 1015.2 |
| 20260502113050 | 50 | 64 | 0.0 | 0.0 | 0.00 | 0.00 | 0.00 | 89 | 1015.5 |
| 20260502111546 | 50 | 64 | 0.0 | 4.3 | 0.00 | 0.00 | 0.00 | 88 | 1015.1 |
| 20260502110045 | 51 | 71 | 0.0 | 2.6 | 0.00 | 0.00 | 0.00 | 88 | 1015.2 |
| 20260502104531 | 51 | 60 | 0.0 | 2.6 | 0.00 | 0.00 | 0.00 | 88 | 1015.2 |
| 20260502103022 | 51 | 61 | 0.0 | 4.3 | 0.00 | 0.00 | 0.00 | 87 | 1015.1 |
| 20260502101504 | 51 | 17 | 1.7 | 5.2 | 0.00 | 0.00 | 0.00 | 87 | 1014.8 |
| 20260502071534 | 55 | 63 | 0.0 | 0.0 | 0.00 | 0.00 | 0.00 | 79 | 1015.9 |
| 20260502070044 | 55 | 63 | 0.0 | 0.0 | 0.00 | 0.00 | 0.00 | 79 | 1015.8 |
| 20260502064531 | 55 | 63 | 0.0 | 0.0 | 0.00 | 0.00 | 0.00 | 77 | 1015.8 |
| 20260502063032 | 56 | 63 | 0.0 | 0.0 | 0.00 | 0.00 | 0.00 | 77 | 1015.9 |
| 20260502061507 | 56 | 67 | 0.0 | 2.6 | 0.00 | 0.00 | 0.00 | 76 | 1015.7 |
| 20260502060004 | 57 | 67 | 0.0 | 0.0 | 0.00 | 0.00 | 0.00 | 74 | 1015.7 |
| 20260502054544 | 57 | 67 | 0.0 | 0.0 | 0.00 | 0.00 | 0.00 | 73 | 1015.4 |
| 20260502053049 | 58 | 67 | 0.0 | 0.9 | 0.00 | 0.00 | 0.00 | 72 | 1015.4 |
| 20260502051527 | 59 | 71 | 0.0 | 0.0 | 0.00 | 0.00 | 0.00 | 71 | 1015.3 |
| 20260502050019 | 59 | 71 | 0.0 | 2.6 | 0.00 | 0.00 | 0.00 | 70 | 1015.3 |
| 20260502044506 | 60 | 92 | 0.0 | 1.7 | 0.00 | 0.00 | 0.00 | 70 | 1015.2 |
| 20260502043007 | 60 | 306 | 0.0 | 0.0 | 0.00 | 0.00 | 0.00 | 70 | 1015.0 |
| 20260502041601 | 61 | 306 | 0.0 | 0.0 | 0.00 | 0.00 | 0.00 | 67 | 1014.8 |
| 20260502040057 | 62 | 306 | 0.0 | 4.3 | 0.00 | 0.00 | 0.00 | 65 | 1014.6 |
| 20260502034553 | 63 | 303 | 0.0 | 0.0 | 0.00 | 0.00 | 0.00 | 66 | 1014.3 |
| 20260502033058 | 64 | 306 | 0.0 | 0.0 | 0.00 | 0.00 | 0.00 | 66 | 1014.1 |
| 20260502031550 | 65 | 311 | 0.0 | 4.3 | 0.00 | 0.00 | 0.00 | 64 | 1013.9 |
| 20260502030054 | 66 | 286 | 0.0 | 4.3 | 0.00 | 0.00 | 0.00 | 62 | 1013.7 |
| 20260502024535 | 67 | 310 | 0.0 | 3.5 | 0.00 | 0.00 | 0.00 | 62 | 1013.5 |